Regional Weather Roundup
Issued by NWS

Home | Current Version | Previous Version | Text Only | Print | Product List | Glossary Off
Versions: 1 2 3 4 5 6 7 8 9 10 11 12 13 14 15 16 17 18 19 20 21 22 23 24 25 26 27 28 29 30 31 32 33 34 35 36 37 38 39 40 41 42 43 44 45 46 47 48 49 50

000
ASUS43 KMPX 280701
RWRMN
WEATHER ROUNDUP FOR MINNESOTA
NATIONAL WEATHER SERVICE TWIN CITIES/CHANHASSEN MN
200 AM CDT THU APR 28 2016


NOTE: "FAIR" INDICATES FEW OR NO CLOUDS BELOW 12,000 FEET WITH NO
SIGNIFICANT WEATHER AND/OR OBSTRUCTIONS TO VISIBILITY. N/A MEANS
CURRENT SKY AND/OR WEATHER CONDITIONS ARE NOT AVAILABLE.

MNZ060>063-068>070-280800-
   Twin Cities Metro

CITY           SKY/WX    TMP DP  RH WIND       PRES   REMARKS
TWIN CITIES    CLOUDY    41  34  76 NE18G25   29.89S
ST PAUL        LGT RAIN  42  34  73 E14G22    29.91F
CRYSTAL        CLOUDY    43  37  79 NE5       29.91R
BLAINE         CLOUDY    43  37  81 E3        29.91R
EDEN PRAIRIE   LGT RAIN  41  35  79 NE13G28   29.87S
SOUTH ST PAUL  LGT RAIN  41  36  81 NE8G16    29.90S
LAKE ELMO      CLOUDY    41  36  81 NE10      29.91F
$$
MNZ001>005-007-008-013>017-022>024-027-028-280800-
   Northwest Minnesota

CITY           SKY/WX    TMP DP  RH WIND       PRES   REMARKS
BEMIDJI        CLOUDY    40  24  52 E7        30.02S
HALLOCK        CLOUDY    45  14  29 NE12      30.08S
ROSEAU         CLOUDY    37  27  65 NE6       30.10R
WARROAD        MOCLDY    39  27  60 NE9G17    30.10S
THIEF RVR FALL CLOUDY    43  18  36 NE12      30.05S
CROOKSTON      CLOUDY    43  23  45 E9        30.04S
FOSSTON        CLOUDY    39  27  60 NE5       30.02S
MOORHEAD       CLOUDY    46  16  29 NE5       30.00S
PARK RAPIDS    CLOUDY    45  12  26 E12       29.97S
MAHNOMEN       PTSUNNY   42  23  46 NE6       30.00S
$$
MNZ006-009>011-018-025>026-280800-
   North Central Minnesota

CITY           SKY/WX    TMP DP  RH WIND       PRES   REMARKS
BAUDETTE       MOCLDY    39  14  36 NE8       30.08S
FLAG ISLAND    CLOUDY    41  16  36 NE8       30.11F
INTL FALLS     CLOUDY    41  17  38 E9        30.08F
WASKISH        CLOUDY    41  18  38 E8        30.05S
BIG FORK       MOCLDY    37  19  48 NE5       30.05S
LONGVILLE      CLOUDY    41   9  26 NE5       30.00F
GRAND RAPIDS   CLOUDY    37   9  30 CALM      30.04R
CRANE LAKE     MOCLDY    27  25  93 CALM      30.10S
ORR            MOCLDY    37  16  41 CALM      30.04S
COOK           CLOUDY    36  16  44 CALM      30.05F
WALKER         CLOUDY    41  19  42 E7        30.01S
$$
MNZ012-019>021-037-280800-
   Northeast Minnesota

CITY           SKY/WX    TMP DP  RH WIND       PRES   REMARKS
DULUTH         CLOUDY    38  14  37 E17G26    30.02R
ELY            CLOUDY    36  18  48 NE5       30.05F
HIBBING        MOCLDY    35  10  35 E3        30.04R
EVELETH        CLOUDY    36  12  38 E5        30.04S
DULUTH HARBOR  CLOUDY    37  32  81 E15       30.07S
TWO HARBORS    CLOUDY    41  18  38 NE7       30.03R
SILVER BAY     CLOUDY    39  12  33 NE8       30.03S
GRAND MARAIS     N/A     43  13  29 NE10      30.08F
G MARAIS ARPRT CLOUDY    36   9  32 NE12G17   30.07S
$$
MNZ029>031-032-039>041-046>048-054>057-064-280800-
   West Central Minnesota

CITY           SKY/WX    TMP DP  RH WIND       PRES   REMARKS
FERGUS FALLS   CLOUDY    39  27  60 NE7       29.93F
WHEATON        CLOUDY    39  34  81 N8        29.97R
MORRIS         FLURRIES  37  30  75 NE16      29.92S
ALEXANDRIA     CLOUDY    39  22  50 E9        29.94R
ELBOW LAKE     LGT RAIN  40  28  61 E6        29.95R
WADENA         CLOUDY    43  14  31 NE10G16   29.95S
GLENWOOD       CLOUDY    37  28  70 NE13      29.92R
APPLETON       CLOUDY    41  30  65 NE13      29.89F
BENSON         CLOUDY    39  28  65 E10       29.90F
ORTONVILLE     CLOUDY    39  30  70 NE15G22   29.90F
MADISON        CLOUDY    41  34  75 NE15G22   29.88S
WILLMAR        CLOUDY    41  32  70 NE12G18   29.89S
$$
MNZ033>034-036-042>043-049>051-058-059-280800-
   Central Minnesota

CITY           SKY/WX    TMP DP  RH WIND       PRES   REMARKS
ST CLOUD       LGT RAIN  37  28  70 NE8       29.92S
SAUK CENTRE    LGT RAIN  38  26  62 NE15G21   29.93R
PAYNESVILLE    CLOUDY    40  25  54 NE12G17   29.91S
AITKIN         CLOUDY    43  10  26 NE10G17   29.98S
PINE RIVER     CLOUDY    43  16  33 E14G22    30.01S
BRAINERD       CLOUDY    42  10  27 E13G21    29.97S
STAPLES        CLOUDY    43   7  22 E14G22    29.95S
LONG PRAIRIE   CLOUDY    37  21  52 NE12      29.93S
LITTLE FALLS   DRIZZLE   39  21  48 E8        29.95R
LITCHFIELD     CLOUDY    43  34  70 NE9       29.90R
BUFFALO        CLOUDY    40  30  69 NE7       29.94R
MAPLE LAKE     LGT RAIN  40  32  70 NE8G21    29.92R
HUTCHINSON     LGT RAIN  40  39  95 NE15      29.89S
$$
MNZ037-044-045-052-053-280800-
   East Central Minnesota

CITY           SKY/WX    TMP DP  RH WIND       PRES   REMARKS
PRINCETON      CLOUDY    39  30  70 NE8       29.93R
MORA           LGT RAIN  37  21  52 E6        29.97R
CAMBRIDGE      CLOUDY    43  28  56 NE7       29.91S
RUSH CITY      LGT RAIN  38  28  66 NE12G17   29.94S
MOOSE LAKE     CLOUDY    36  23  60 NE16      29.96F
HINCKLEY       CLOUDY    41  18  38 NE5       29.97R
CLOQUET        CLOUDY    37  18  44 E13G18    30.01F
MCGREGOR       CLOUDY    39  18  41 E13G18    30.00S
$$
MNZ071>073-080-081-089-090-097-098-280800-
   Southwest Minnesota

CITY           SKY/WX    TMP DP  RH WIND       PRES   REMARKS
MONTEVIDEO     CLOUDY    39  37  93 E10       29.89S
GRANITE FALLS  CLOUDY    42  39  91 NE18G24   29.88S
CANBY          CLOUDY    42  41  96 NE9       29.87S
MARSHALL       LGT RAIN  40  39  97 E16       29.84S FOG
REDWOOD FALLS  LGT RAIN  40  38  93 NE9G21    29.84S FOG
OLIVIA         CLOUDY    39  36  87 E15       29.86S
PIPESTONE      LGT RAIN  39  39 100 E10G16    29.78S
WINDOM         LGT RAIN  39  39 100 NE12G20   29.79S
WORTHINGTON    LGT RAIN  39  38  96 NE17      29.77S
JACKSON        LGT SNOW  39  37  93 NE17      29.77R
TRACY          LGT RAIN  40  39  97 NE13G21   29.82S
SLAYTON        LGT RAIN  39  39 100 NE10      29.80S
$$
MNZ065>067-074>077-082>085-091>093-280800-
   South Central Minnesota

CITY           SKY/WX    TMP DP  RH WIND       PRES   REMARKS
MANKATO        CLOUDY    39  36  87 E14G20    29.83R
NEW ULM        HVY RAIN  39  39 100 NE10G17   29.83S
ST JAMES       RAIN      36  36 100 NE13      29.81R
FAIRMONT       CLOUDY    41  32  70 NE13      29.77S
GLENCOE        LGT RAIN  40  40  98 NE12G23   29.87S
FARIBAULT      CLOUDY    39  36  87 NE12G18   29.84F
OWATONNA       LGT RAIN  39  36  87 E17G23    29.81F
ALBERT LEA     CLOUDY    41  39  93 E15G23    29.77R
$$
MNZ078>079-086>088-094>096-280800-
   Southeast Minnesota

CITY           SKY/WX    TMP DP  RH WIND       PRES   REMARKS
ROCHESTER      LGT RAIN  39  35  86 E18       29.79F
RED WING       CLOUDY    43  30  61 E10       29.87F
STANTON        CLOUDY    41  34  75 E14       29.85F
DODGE CENTER   LGT RAIN  37  36  93 E20G29    29.80F
WINONA         CLOUDY    41  32  70 E8        29.88R
AUSTIN         CLOUDY    39  36  87 E13G18    29.77S
PRESTON        MOCLDY    37  31  77 NE14G22   29.78F
$$
ABBREVIATIONS USED IN REMARKS
   TC - TEMPERATURES IN CELSIUS
  WCI - WIND CHILL INDEX
   HX - HEAT INDEX
  VSB - VISIBILITY
$$




USA.gov is the U.S. government's official web portal to all federal, state and local government web resources and services.